Weather History for LEMD - February, 2013

Change the Weather History Date:

Tuesday, February 5, 2013

  Actual Average Record
Temperature  
Mean Temperature 46 °F -  
Max Temperature 61 °F 54 °F 66 °F (1999)
Min Temperature 31 °F 34 °F 26 °F (2006)
Degree Days  
Heating Degree Days 19    
Moisture  
Dew Point 35 °F    
Average Humidity 72    
Maximum Humidity 100    
Minimum Humidity 29    
Precipitation  
Precipitation 0.00 in 0.06 in - ()
Sea Level Pressure  
Sea Level Pressure 30.27 in    
Wind  
Wind Speed 4 mph ()    
Max Wind Speed 17 mph    
Max Gust Speed 21 mph    
Visibility 10.1 miles    
Events      
Averages and records for this station are not official NWS values.
T = Trace of Precipitation, MM = Missing Value Source: Averaged Metar Reports

Daily Weather History Graph

Daily Weather History Graph

Search for Another Location

Airport or City:

Trip Planner

Search our weather history database for the weather conditions in past years. The results will help you decide how hot, cold, wet, or windy it might be!

Date:

Astronomy

Feb. 05, 2013 Rise Set
Actual Time 8:19 AM CET 6:37 PM CET
Civil Twilight 7:51 AM CET 7:05 PM CET
Nautical Twilight 7:18 AM CET 7:38 PM CET
Astronomical Twilight 6:46 AM CET 8:10 PM CET
Moon 3:46 AM CET (2/5) 1:41 PM CET (2/5)
Length of Visible Light 11h 14m
Length of Day
10h 17m
Waning Crescent, 29% of the Moon is Illuminated
Feb 5
Waning Crescent
Feb 10
New
Feb 17
First Quarter
Feb 25
Full
Mar 4
Last Quarter

Hourly Weather History & Observations

Time (CET) Temp. Windchill Dew Point Humidity Pressure Visibility Wind Dir Wind Speed Gust Speed Precip Events Conditions
12:00 AM 39.2 °F 34.2 °F 33.8 °F 81% 30.36 in - NW 6.9 mph - N/A   Clear
12:30 AM 39.2 °F 37.0 °F 37.4 °F 93% 30.36 in - North 3.5 mph - N/A   Clear
1:00 AM 38 °F - 34 °F 78% 30.43 in 16 mi North 4.6 mph - -  
1:00 AM 39.2 °F 35.9 °F 37.4 °F 93% 30.36 in - North 4.6 mph - N/A   Clear
1:30 AM 37.4 °F 34.9 °F 35.6 °F 93% 30.36 in - North 3.5 mph - N/A   Clear
2:00 AM 37.4 °F - 35.6 °F 93% 30.36 in - Calm Calm - N/A   Clear
2:30 AM 35.6 °F - 35.6 °F 100% 30.33 in - Calm Calm - N/A   Clear
3:00 AM 35.6 °F 32.8 °F 35.6 °F 100% 30.33 in - North 3.5 mph - N/A   Clear
3:30 AM 35.6 °F 32.8 °F 33.8 °F 93% 30.33 in - NNW 3.5 mph - N/A   Clear
4:00 AM 33.8 °F - 33.8 °F 100% 30.33 in - Variable 2.3 mph - N/A   Clear
4:30 AM 33.8 °F 30.8 °F 33.8 °F 100% 30.33 in - North 3.5 mph - N/A   Clear
5:00 AM 33.8 °F - 33.8 °F 100% 30.33 in - Variable 1.2 mph - N/A   Clear
5:30 AM 33.8 °F 30.8 °F 33.8 °F 100% 30.30 in - NNW 3.5 mph - N/A   Clear
6:00 AM 33.8 °F - 33.8 °F 100% 30.33 in - North 2.3 mph - N/A   Clear
6:30 AM 32.0 °F 27.5 °F 32.0 °F 100% 30.30 in - NNE 4.6 mph - N/A   Clear
7:00 AM 31 °F - 29 °F 89% 30.43 in 9 mi NW 4.6 mph - -  
7:00 AM 32.0 °F 28.7 °F 32.0 °F 100% 30.33 in - NNW 3.5 mph - N/A   Clear
7:30 AM 32.0 °F - 32.0 °F 100% 30.33 in - North 2.3 mph - N/A   Clear
8:00 AM 33.8 °F 30.8 °F 33.8 °F 100% 30.33 in - North 3.5 mph - N/A   Clear
8:30 AM 32.0 °F - 32.0 °F 100% 30.33 in 6.2 mi NW 2.3 mph - N/A   Partly Cloudy
9:00 AM 32.0 °F - 32.0 °F 100% 30.33 in 6.2 mi Calm Calm - N/A   Partly Cloudy
9:30 AM 33.8 °F 30.8 °F 33.8 °F 100% 30.33 in 6.2 mi North 3.5 mph - N/A   Partly Cloudy
10:00 AM 37.4 °F 33.8 °F 35.6 °F 93% 30.33 in 6.2 mi North 4.6 mph - N/A   Partly Cloudy
10:30 AM 39.2 °F 35.9 °F 37.4 °F 93% 30.33 in - NNW 4.6 mph - N/A   Clear
11:00 AM 44.6 °F - 39.2 °F 81% 30.30 in - Variable 2.3 mph - N/A   Clear
12:00 PM 50.0 °F - 39.2 °F 66% 30.30 in - SSW 1.2 mph - N/A   Clear
12:30 PM 51.8 °F - 39.2 °F 62% 30.30 in - Variable 2.3 mph - N/A   Clear
1:00 PM 54 °F - 39 °F 47% 30.30 in 12 mi South 3.5 mph - -   Clear
1:00 PM 53.6 °F - 39.2 °F 58% 30.30 in - Variable 2.3 mph - N/A   Clear
1:30 PM 55.4 °F - 41.0 °F 58% 30.27 in - West 1.2 mph - N/A   Clear
2:00 PM 57.2 °F - 41.0 °F 55% 30.27 in - Variable 2.3 mph - N/A   Clear
2:30 PM 59.0 °F - 41.0 °F 51% 30.27 in - NNW 1.2 mph - N/A   Clear
3:00 PM 59.0 °F - 39.2 °F 48% 30.24 in - SSW 1.2 mph - N/A   Clear
3:30 PM 59.0 °F - 41.0 °F 51% 30.21 in - South 5.8 mph - N/A   Clear
4:30 PM 59.0 °F - 41.0 °F 51% 30.18 in - SSE 3.5 mph - N/A   Clear
5:00 PM 59.0 °F - 37.4 °F 45% 30.18 in - SW 10.4 mph - N/A   Clear
5:30 PM 60.8 °F - 33.8 °F 36% 30.18 in - WSW 9.2 mph 20.7 mph N/A   Clear
6:00 PM 59.0 °F - 33.8 °F 39% 30.15 in - WSW 11.5 mph - N/A   Clear
6:30 PM 57.2 °F - 32.0 °F 38% 30.18 in - West 9.2 mph - N/A   Clear
7:00 PM 54 °F - 31 °F 29% 30.17 in 19 mi West 10.4 mph - -   Scattered Clouds
7:00 PM 55.4 °F - 32.0 °F 41% 30.15 in - West 10.4 mph - N/A   Clear
7:30 PM 53.6 °F - 30.2 °F 41% 30.15 in - West 6.9 mph - N/A   Clear
8:00 PM 50.0 °F - 33.8 °F 54% 30.15 in - West 8.1 mph - N/A   Clear
8:30 PM 51.8 °F - 35.6 °F 54% 30.15 in - West 11.5 mph - N/A   Clear
9:00 PM 51.8 °F - 35.6 °F 54% 30.15 in - WNW 15.0 mph - N/A   Clear
9:30 PM 51.8 °F - 35.6 °F 54% 30.15 in - West 15.0 mph - N/A   Clear
10:00 PM 51.8 °F - 33.8 °F 50% 30.15 in - West 9.2 mph - N/A   Clear
10:30 PM 50.0 °F - 33.8 °F 54% 30.15 in - West 11.5 mph - N/A   Clear
11:00 PM 50.0 °F - 32.0 °F 50% 30.15 in - West 16.1 mph - N/A   Clear
11:30 PM 50.0 °F - 30.2 °F 47% 30.12 in - WNW 17.3 mph - N/A   Clear